DTTADTMB

Guest
Details From DTTA - CARTHAGE
To DTMB - Monastir Habib Bourguiba Intl
Flight Number -
Tags generated
Created
Modified
Stats Distance 71 nm / 131 km
Max Altitude 19,500 ft / 5,944 m
Waypoints 4
Social Downloads 5
Likes 0
Share VATSIM

Download

Looking for another format? Having issues loading an existing format? Contact us
Advertisement - Login to hide

Notes

Basic altitude profile: - Ascent Rate: 2500ft/min - Ascent Speed: 250kts - Cruise Altitude: 35000ft - Cruise Speed: 420kts - Descent Rate: 1500ft/min - Descent Speed: 250kts Options: - Use NATs: yes - Use PACOTS: yes - Use low airways: yes - Use high airways: yes

Route

DTTA TUC A411 MON DTMB

ID Type Via Altitude Latitude Longitude Leg Dist Tot Dist Heading (true) Name
O DTTA APT - 0 ft / 0 m 36.85127˚ 10.23003˚ - 0 nm - CARTHAGE
TUC VOR - 0 ft / 0 m 36.85158˚ 10.23033˚ 0 nm 0 nm 38° / 38° TUNIS VOR-DME
MON VOR A411 (AWY-LO) 19,500 ft / 5,944 m 35.75492˚ 10.74806˚ 70 nm 70 nm 159° / 159° MONASTIR VOR-DME
O DTMB APT - 0 ft / 0 m 35.75784˚ 10.75403˚ 0 nm 70 nm 59° / 59° Monastir Habib Bourguiba Intl

Altitude Profile

Advertisement - Login to hide

DTTA

Details ICAO DTTA (TUN)
Name CARTHAGE
Region Tunisia
Timezone Africa/Tunis (UTC+1.0)
Stats Elevation 22 ft / 7 m (AMSL)
Location 36.851267° 10.230027°
Runways 2
Magnetic Variation 2.445° E

METAR

DTTA 201630Z 36012KT 9999 SCT033 21/16 Q1010 NOSIG

Decode

TAF

TAF DTTA 201112Z 2012/2112 03005KT 9999 SCT020= TAF DTMB 201112Z 2006/2106 34012KT CAVOK TEMPO 2016/2024 07012KT 9999 SCT025 BECMG 2100/2102 35004KT BECMG 2109/2111 07014KT

Decode

Departure Runways

ID Width Length Bearing (true) Bearing (mag) Surface Threshold Offset Overrun Length
01 148 ft / 45 m 10,502 ft / 3,201 m 12.29° 9.85° Asphalt 0 ft / 0 m 197 ft / 60 m
11 148 ft / 45 m 9,345 ft / 2,848 m 112.55° 110.11° Asphalt 0 ft / 0 m 643 ft / 196 m
19 148 ft / 45 m 10,502 ft / 3,201 m 192.29° 189.85° Asphalt 0 ft / 0 m 197 ft / 60 m
29 148 ft / 45 m 9,345 ft / 2,848 m 292.57° 290.13° Asphalt 657 ft / 200 m 197 ft / 60 m

DTMB

Details ICAO DTMB (MIR)
Name Monastir Habib Bourguiba Intl
Region Tunisia
Timezone Africa/Tunis (UTC+1.0)
Stats Elevation 9 ft / 3 m (AMSL)
Location 35.757843° 10.754025°
Runways 1
Magnetic Variation 2.473° E

METAR

DTMB 201630Z 01009KT 8000 NSC 22/14 Q1010

Decode

TAF

TAF DTMB 201112Z 2012/2112 34012KT CAVOK TEMPO 2016/2024 07012KT 9999 SCT025 BECMG 2100/2102 35004KT BECMG 2109/2111 07014KT

Decode

Destination Runways

ID Width Length Bearing (true) Bearing (mag) Surface Threshold Offset Overrun Length
07 148 ft / 45 m 9,627 ft / 2,934 m 73.54° 71.07° Asphalt 0 ft / 0 m 164 ft / 50 m
25 148 ft / 45 m 9,627 ft / 2,934 m 253.56° 251.09° Asphalt 0 ft / 0 m 164 ft / 50 m

Approach Navaids

Runway Type Ident Frequency Range Bearing (true) Bearing (mag) Slope Elevation
07 Localiser MIS 109.90 MHz 18 nm / 33 km 73.57° 71.09° - 9 ft / 3 m (AMSL)
07 Glidescope MIS 109.90 MHz 10 nm / 19 km 73.55° 71.08° 3.00° 9 ft / 3 m (AMSL)

Popular Alternatives